Decatur, TX

12:18 PM CDT on May 27, 2017 (GMT -0500)
Decatur

Weather History for KLUD - March, 2013

Change the Weather History Date:

Wednesday, March 27, 2013

  Actual Average (KDTO) Record (KDTO)
Temperature  
Mean Temperature 54 °F -  
Max Temperature 69 °F 67 °F 86 °F (2008)
Min Temperature 38 °F 45 °F 33 °F (2009)
Degree Days  
Heating Degree Days 12    
Growing Degree Days 4 (Base 50)    
Moisture  
Dew Point 31 °F    
Average Humidity 42    
Maximum Humidity 57    
Minimum Humidity 29    
Precipitation  
Precipitation 0.00 in - - ()
Sea Level Pressure  
Sea Level Pressure 30.18 in    
Wind  
Wind Speed 13 mph (SSE)    
Max Wind Speed 25 mph    
Max Gust Speed 32 mph    
Visibility 10 miles    
Events      
Averages and records for this station are not official NWS values.
T = Trace of Precipitation, MM = Missing Value Source: NWS Daily Summary

Daily Weather History Graph

Daily Weather History Graph

Search for Another Location

Airport or City:

Trip Planner

Search our weather history database for the weather conditions in past years. The results will help you decide how hot, cold, wet, or windy it might be!

Date:

Astronomy

Mar. 27, 2013 Rise Set
Actual Time 7:24 AM CDT 7:47 PM CDT
Civil Twilight 6:59 AM CDT 8:12 PM CDT
Nautical Twilight 6:30 AM CDT 8:41 PM CDT
Astronomical Twilight 6:00 AM CDT 9:10 PM CDT
Moon 8:28 PM CDT 7:18 AM CDT
Length of Visible Light 13h 12m
Length of Day
12h 22m
Full, 100% of the Moon is Illuminated
Mar 27
Full
Apr 2
Last Quarter
Apr 10
New
Apr 18
First Quarter
Apr 25
Full

Hourly Weather History & Observations

Time (CDT) Temp. Windchill Dew Point Humidity Pressure Visibility Wind Dir Wind Speed Gust Speed Precip Events Conditions
12:15 AM 43.9 °F 37.9 °F 23.0 °F 44% 30.28 in 10.0 mi SE 11.5 mph - N/A   Clear
12:35 AM 43.7 °F 38.1 °F 23.0 °F 44% 30.27 in 10.0 mi SE 10.4 mph - N/A   Clear
12:55 AM 42.8 °F 37.0 °F 23.7 °F 47% 30.27 in 10.0 mi SE 10.4 mph - N/A   Clear
1:15 AM 42.8 °F 36.6 °F 23.7 °F 47% 30.27 in 10.0 mi SE 11.5 mph - N/A   Clear
1:35 AM 42.3 °F 35.9 °F 23.9 °F 48% 30.26 in 10.0 mi SE 11.5 mph - N/A   Clear
1:55 AM 42.8 °F 36.6 °F 23.5 °F 47% 30.26 in 10.0 mi SE 11.5 mph - N/A   Clear
2:15 AM 42.4 °F 36.1 °F 23.9 °F 48% 30.25 in 10.0 mi SSE 11.5 mph - N/A   Clear
2:35 AM 41.9 °F 35.9 °F 24.4 °F 50% 30.25 in 10.0 mi SE 10.4 mph - N/A   Clear
2:55 AM 41.4 °F 34.7 °F 24.6 °F 51% 30.23 in 10.0 mi SE 11.5 mph - N/A   Clear
3:15 AM 41.9 °F 35.0 °F 24.4 °F 50% 30.23 in 10.0 mi SE 12.7 mph - N/A   Clear
3:35 AM 42.3 °F 35.1 °F 24.1 °F 49% 30.22 in 10.0 mi SSE 13.8 mph - N/A   Clear
3:55 AM 42.1 °F 36.1 °F 23.9 °F 49% 30.22 in 10.0 mi SSE 10.4 mph - N/A   Clear
4:15 AM 41.7 °F 35.6 °F 23.9 °F 49% 30.22 in 10.0 mi SSE 10.4 mph - N/A   Clear
4:35 AM 41.4 °F 34.7 °F 24.1 °F 50% 30.22 in 10.0 mi SSE 11.5 mph - N/A   Clear
4:55 AM 41.2 °F 34.5 °F 23.9 °F 50% 30.22 in 10.0 mi SSE 11.5 mph - N/A   Clear
5:15 AM 41.0 °F 34.7 °F 23.5 °F 50% 30.22 in 10.0 mi SSE 10.4 mph - N/A   Clear
5:35 AM 41.0 °F 35.2 °F 23.5 °F 50% 30.23 in 10.0 mi SSE 9.2 mph - N/A   Clear
5:55 AM 40.1 °F 34.1 °F 23.5 °F 52% 30.24 in 10.0 mi SSE 9.2 mph - N/A   Clear
6:15 AM 40.1 °F 35.3 °F 23.9 °F 52% 30.24 in 10.0 mi SSE 6.9 mph - N/A   Clear
6:35 AM 39.7 °F 33.7 °F 23.9 °F 53% 30.24 in 10.0 mi SSE 9.2 mph - N/A   Clear
6:55 AM 39.4 °F 32.7 °F 23.9 °F 54% 30.24 in 10.0 mi SE 10.4 mph - N/A   Clear
7:15 AM 39.6 °F 32.5 °F 23.5 °F 53% 30.24 in 10.0 mi SE 11.5 mph - N/A   Clear
7:35 AM 38.7 °F 32.4 °F 23.9 °F 55% 30.24 in 10.0 mi SE 9.2 mph - N/A   Clear
7:55 AM 38.5 °F 32.1 °F 24.4 °F 57% 30.25 in 10.0 mi SE 9.2 mph - N/A   Clear
8:15 AM 39.6 °F 33.0 °F 24.6 °F 55% 30.24 in 10.0 mi SE 10.4 mph - N/A   Clear
8:35 AM 41.5 °F 35.9 °F 25.5 °F 53% 30.25 in 10.0 mi SSE 9.2 mph - N/A   Clear
8:55 AM 45.5 °F 39.2 °F 26.4 °F 47% 30.25 in 10.0 mi SSE 13.8 mph - N/A   Clear
9:15 AM 48.2 °F - 25.7 °F 42% 30.25 in 10.0 mi South 17.3 mph 21.9 mph N/A   Clear
9:35 AM 49.8 °F - 25.7 °F 39% 30.25 in 10.0 mi South 17.3 mph 25.3 mph N/A   Clear
9:55 AM 51.3 °F - 25.3 °F 37% 30.26 in 10.0 mi South 18.4 mph 26.5 mph N/A   Clear
10:15 AM 52.9 °F - 25.9 °F 35% 30.25 in 10.0 mi South 18.4 mph 21.9 mph N/A   Clear
10:35 AM 54.7 °F - 25.7 °F 33% 30.25 in 10.0 mi South 17.3 mph 23.0 mph N/A   Clear
10:55 AM 55.8 °F - 26.1 °F 32% 30.24 in 10.0 mi South 16.1 mph 25.3 mph N/A   Clear
11:15 AM 57.4 °F - 26.8 °F 31% 30.24 in 10.0 mi SSE 18.4 mph 27.6 mph N/A   Clear
11:35 AM 58.8 °F - 27.3 °F 30% 30.24 in 10.0 mi South 19.6 mph 24.2 mph N/A   Clear
11:55 AM 59.9 °F - 28.0 °F 30% 30.22 in 10.0 mi South 17.3 mph 26.5 mph N/A   Clear
12:15 PM 60.3 °F - 28.8 °F 30% 30.22 in 10.0 mi South 18.4 mph 27.6 mph N/A   Clear
12:35 PM 61.9 °F - 30.6 °F 31% 30.21 in 10.0 mi South 21.9 mph 28.8 mph N/A   Clear
12:55 PM 62.2 °F - 31.5 °F 31% 30.21 in 10.0 mi South 19.6 mph 24.2 mph N/A   Clear
1:15 PM 63.0 °F - 31.8 °F 31% 30.20 in 10.0 mi South 19.6 mph 27.6 mph N/A   Clear
1:35 PM 64.4 °F - 32.2 °F 30% 30.19 in 10.0 mi South 19.6 mph 27.6 mph N/A   Clear
1:55 PM 64.9 °F - 32.7 °F 30% 30.17 in 10.0 mi South 21.9 mph 29.9 mph N/A   Clear
2:15 PM 66.2 °F - 34.5 °F 31% 30.16 in 10.0 mi South 13.8 mph 27.6 mph N/A   Clear
2:35 PM 66.9 °F - 34.3 °F 30% 30.15 in 10.0 mi South 21.9 mph 28.8 mph N/A   Clear
2:55 PM 67.3 °F - 34.5 °F 30% 30.14 in 10.0 mi South 20.7 mph 28.8 mph N/A   Clear
3:15 PM 67.8 °F - 34.7 °F 29% 30.13 in 10.0 mi SSE 18.4 mph 27.6 mph N/A   Clear
3:35 PM 68.4 °F - 35.1 °F 29% 30.11 in 10.0 mi South 20.7 mph 27.6 mph N/A   Clear
3:55 PM 68.7 °F - 35.1 °F 29% 30.10 in 10.0 mi South 20.7 mph 31.1 mph N/A   Clear
4:15 PM 69.1 °F - 35.6 °F 29% 30.09 in 10.0 mi South 18.4 mph 32.2 mph N/A   Clear
4:35 PM 68.7 °F - 35.8 °F 30% 30.07 in 10.0 mi South 20.7 mph 28.8 mph N/A   Clear
4:55 PM 68.9 °F - 36.0 °F 30% 30.07 in 10.0 mi South 16.1 mph 32.2 mph N/A   Clear
5:15 PM 69.3 °F - 35.8 °F 29% 30.07 in 10.0 mi South 25.3 mph 29.9 mph N/A   Clear
5:35 PM 68.9 °F - 36.0 °F 30% 30.07 in 10.0 mi South 20.7 mph 26.5 mph N/A   Clear
5:55 PM 68.9 °F - 36.3 °F 30% 30.07 in 10.0 mi South 15.0 mph 26.5 mph N/A   Clear
6:15 PM 68.9 °F - 36.5 °F 30% 30.06 in 10.0 mi South 17.3 mph 25.3 mph N/A   Clear
6:35 PM 68.5 °F - 36.9 °F 31% 30.06 in 10.0 mi South 16.1 mph 26.5 mph N/A   Clear
6:55 PM 68.0 °F - 37.4 °F 33% 30.06 in 10.0 mi South 15.0 mph 24.2 mph N/A   Clear
7:15 PM 67.1 °F - 37.6 °F 34% 30.05 in 10.0 mi South 15.0 mph 19.6 mph N/A   Clear
7:35 PM 66.6 °F - 37.6 °F 34% 30.05 in 10.0 mi South 15.0 mph 19.6 mph N/A   Clear
7:55 PM 64.2 °F - 39.2 °F 40% 30.06 in 10.0 mi SSE 10.4 mph - N/A   Clear
8:15 PM 63.5 °F - 39.2 °F 41% 30.08 in 10.0 mi SSE 9.2 mph - N/A   Clear
8:35 PM 62.2 °F - 39.2 °F 43% 30.08 in 10.0 mi SSE 6.9 mph - N/A   Clear
8:55 PM 60.1 °F - 39.6 °F 47% 30.09 in 10.0 mi SE 5.8 mph - N/A   Clear
9:15 PM 59.9 °F - 39.6 °F 47% 30.10 in 10.0 mi SE 6.9 mph - N/A   Clear
9:35 PM 58.6 °F - 40.1 °F 50% 30.10 in 10.0 mi SE 8.1 mph - N/A   Clear
9:55 PM 58.3 °F - 40.1 °F 51% 30.11 in 10.0 mi SSE 9.2 mph - N/A   Clear
10:15 PM 58.1 °F - 40.5 °F 52% 30.12 in 10.0 mi SSE 6.9 mph - N/A   Clear
10:35 PM 58.3 °F - 41.0 °F 53% 30.13 in 10.0 mi SSE 6.9 mph - N/A   Clear
10:55 PM 58.3 °F - 41.2 °F 53% 30.13 in 10.0 mi South 10.4 mph - N/A   Clear
11:15 PM 58.6 °F - 41.7 °F 53% 30.13 in 10.0 mi South 10.4 mph - N/A   Clear
11:35 PM 58.6 °F - 42.1 °F 54% 30.13 in 10.0 mi South 11.5 mph 16.1 mph N/A   Clear
11:55 PM 58.6 °F - 42.3 °F 55% 30.12 in 10.0 mi South 12.7 mph 18.4 mph N/A   Clear